Location: Caltech
(34.1382°N, 118.1253°W)
Time: 11:25:29
(UTC-07:00)

JAS-1B - Visible Passes

Search period start: 25 August 2016 00:00
Search period end: 04 September 2016 00:00
Orbit: 911 x 1744 km, 99.0° (Epoch: 24 August)

Date Brightness Start Highest point End Pass type
(mag) Time Alt. Az. Time Alt. Az. Time Alt. Az.
25 Aug 10.0 04:44:22 10° E 04:48:32 19° ENE 04:53:07 10° NNE visible
25 Aug 9.9 20:09:58 10° N 20:18:12 36° WNW 20:26:50 10° SW visible
26 Aug 9.5 05:02:06 10° ESE 05:07:11 26° ENE 05:12:56 10° N visible
26 Aug 10.3 20:29:31 10° N 20:36:59 28° WNW 20:44:47 10° WSW visible
27 Aug 8.9 05:20:15 10° SE 05:25:54 37° ENE 05:32:28 10° N visible
27 Aug 10.6 20:49:16 10° NNW 20:55:42 21° WNW 21:02:22 10° WSW visible
28 Aug 8.3 05:38:41 10° SE 05:44:43 53° ENE 05:51:49 10° N visible
28 Aug 10.8 21:09:23 10° NNW 21:14:20 16° NW 21:19:24 10° W visible
29 Aug 10.6 04:13:09 10° ENE 04:14:42 11° NE 04:16:19 10° NE visible
29 Aug 9.2 19:35:06 10° N 19:44:23 55° WNW 19:53:51 10° SW visible
29 Aug 11.1 21:30:38 10° NW 21:32:51 11° NW 21:35:07 10° WNW visible
30 Aug 10.3 04:29:21 10° E 04:33:14 16° NE 04:37:25 10° NNE visible
30 Aug 9.6 19:54:26 10° N 20:03:16 43° WNW 20:12:16 10° SW visible
31 Aug 9.8 04:46:49 10° ESE 04:51:49 23° ENE 04:57:26 10° NNE visible
31 Aug 10.0 20:13:54 10° N 20:22:04 33° WNW 20:30:23 10° WSW visible
01 Sep 9.3 05:04:47 10° SE 05:10:30 32° ENE 05:17:05 10° N visible
01 Sep 10.4 20:33:31 10° NNW 20:40:48 25° WNW 20:48:12 10° WSW visible
02 Sep 8.7 05:23:05 10° SE 05:29:14 45° ENE 05:36:32 10° N visible
02 Sep 10.7 20:53:24 10° NNW 20:59:27 19° WNW 21:05:35 10° W visible
03 Sep 8.1 05:41:38 10° SSE 05:48:05 62° ENE 05:55:50 10° N visible
03 Sep 10.9 21:13:46 10° NNW 21:18:01 14° NW 21:22:19 10° W visible
